| time (UTC) | temp C | wind direction | speed KPH | gust KPH | rain 1hr cm | rain 24hr cm | rain mn cm | humidity % | barometer mb |
| 20260507130044 | 7 | 223 | 0.0 | 0.0 | 0.00 | 0.00 | 0.00 | 92 | 1016.9 |
| 20260507124541 | 7 | 223 | 0.0 | 0.0 | 0.00 | 0.00 | 0.00 | 93 | 1016.7 |
| 20260507123040 | 7 | 223 | 0.0 | 0.0 | 0.00 | 0.00 | 0.00 | 92 | 1016.5 |
| 20260507121540 | 8 | 223 | 0.0 | 0.0 | 0.00 | 0.00 | 0.00 | 92 | 1016.5 |
| 20260507120038 | 8 | 223 | 0.0 | 0.0 | 0.00 | 0.00 | 0.00 | 92 | 1016.6 |
| 20260507114538 | 8 | 223 | 0.0 | 0.0 | 0.00 | 0.00 | 0.00 | 92 | 1016.6 |
| 20260507113035 | 8 | 223 | 0.0 | 0.0 | 0.00 | 0.00 | 0.00 | 92 | 1016.7 |
| 20260507111533 | 8 | 223 | 0.0 | 0.0 | 0.00 | 0.00 | 0.00 | 91 | 1016.6 |
| 20260507110045 | 8 | 223 | 0.0 | 1.6 | 0.00 | 0.00 | 0.00 | 92 | 1016.8 |
| 20260507104530 | 8 | 223 | 0.0 | 0.0 | 0.00 | 0.00 | 0.00 | 91 | 1016.7 |
| 20260507103030 | 8 | 223 | 0.0 | 0.0 | 0.00 | 0.00 | 0.00 | 92 | 1016.9 |
| 20260507101525 | 8 | 223 | 0.0 | 0.0 | 0.00 | 0.00 | 0.00 | 91 | 1017.1 |
| 20260507100023 | 9 | 223 | 0.0 | 0.0 | 0.00 | 0.00 | 0.00 | 91 | 1017.1 |
| 20260507094522 | 9 | 223 | 0.0 | 0.0 | 0.00 | 0.00 | 0.00 | 91 | 1017.2 |
| 20260507093020 | 9 | 223 | 0.0 | 0.0 | 0.00 | 0.00 | 0.00 | 90 | 1017.4 |
| 20260507091519 | 9 | 223 | 0.0 | 0.0 | 0.00 | 0.00 | 0.00 | 90 | 1017.4 |
| 20260507090024 | 10 | 223 | 0.0 | 0.0 | 0.00 | 0.00 | 0.00 | 90 | 1017.5 |
| 20260507084530 | 10 | 223 | 0.0 | 0.0 | 0.00 | 0.00 | 0.00 | 90 | 1017.6 |
| 20260507083014 | 10 | 223 | 0.0 | 0.0 | 0.00 | 0.00 | 0.00 | 89 | 1017.6 |
| 20260507081514 | 10 | 223 | 0.0 | 0.0 | 0.00 | 0.00 | 0.00 | 89 | 1017.9 |
| 20260507080009 | 10 | 223 | 0.0 | 0.0 | 0.00 | 0.00 | 0.00 | 88 | 1018.1 |
| 20260507074523 | 10 | 223 | 0.0 | 0.0 | 0.00 | 0.00 | 0.00 | 88 | 1018.0 |
| 20260507073007 | 11 | 223 | 0.0 | 0.0 | 0.00 | 0.00 | 0.00 | 87 | 1018.1 |
| 20260507071502 | 11 | 223 | 0.0 | 0.0 | 0.00 | 0.00 | 0.00 | 87 | 1018.3 |
| 20260507070108 | 11 | 223 | 0.0 | 0.0 | 0.00 | 0.00 | 0.00 | 86 | 1018.3 |
| 20260507064601 | 11 | 223 | 0.0 | 0.0 | 0.00 | 0.00 | 0.00 | 86 | 1018.3 |
| 20260507063100 | 11 | 223 | 0.0 | 0.0 | 0.00 | 0.00 | 0.00 | 85 | 1018.2 |
| 20260507061559 | 11 | 223 | 0.0 | 0.0 | 0.00 | 0.00 | 0.00 | 85 | 1018.3 |
| 20260507060110 | 12 | 223 | 0.0 | 0.0 | 0.00 | 0.00 | 0.00 | 84 | 1018.2 |
| 20260507054600 | 12 | 223 | 0.0 | 0.0 | 0.00 | 0.00 | 0.00 | 82 | 1018.2 |
| 20260507053057 | 12 | 223 | 0.0 | 0.0 | 0.00 | 0.00 | 0.00 | 82 | 1018.3 |
| 20260507051557 | 12 | 223 | 0.0 | 0.0 | 0.00 | 0.00 | 0.00 | 81 | 1018.3 |
| 20260507050059 | 12 | 223 | 0.0 | 0.0 | 0.00 | 0.00 | 0.00 | 80 | 1018.2 |
| 20260507044557 | 12 | 223 | 0.0 | 0.0 | 0.00 | 0.00 | 0.00 | 78 | 1018.2 |
| 20260507043059 | 13 | 223 | 0.0 | 0.0 | 0.00 | 0.00 | 0.00 | 77 | 1018.2 |
| 20260507041554 | 13 | 223 | 0.0 | 0.0 | 0.00 | 0.00 | 0.00 | 75 | 1018.2 |
| 20260507040054 | 14 | 223 | 0.0 | 0.0 | 0.00 | 0.00 | 0.00 | 73 | 1018.1 |
| 20260507034559 | 15 | 223 | 0.0 | 0.0 | 0.00 | 0.00 | 0.00 | 71 | 1017.9 |
| 20260507033053 | 15 | 223 | 0.0 | 0.0 | 0.00 | 0.00 | 0.00 | 69 | 1017.9 |
| 20260507031552 | 16 | 223 | 0.0 | 0.0 | 0.00 | 0.00 | 0.00 | 68 | 1017.8 |
| 20260507030052 | 16 | 223 | 0.0 | 0.0 | 0.00 | 0.00 | 0.00 | 66 | 1017.8 |
| 20260507024558 | 17 | 223 | 0.0 | 0.0 | 0.00 | 0.00 | 0.00 | 65 | 1017.5 |
| 20260507023053 | 17 | 223 | 0.0 | 3.2 | 0.00 | 0.00 | 0.00 | 64 | 1017.4 |
| 20260507021551 | 17 | 223 | 0.0 | 6.4 | 0.00 | 0.00 | 0.00 | 63 | 1017.3 |
| 20260507020053 | 18 | 224 | 1.6 | 8.0 | 0.00 | 0.00 | 0.00 | 62 | 1017.1 |
| 20260507014551 | 18 | 224 | 1.6 | 9.7 | 0.00 | 0.00 | 0.00 | 62 | 1017.1 |
| 20260507013049 | 18 | 224 | 4.8 | 9.7 | 0.00 | 0.00 | 0.00 | 62 | 1017.1 |
| 20260507011549 | 19 | 224 | 1.6 | 9.7 | 0.00 | 0.00 | 0.00 | 61 | 1016.9 |
| 20260507010105 | 19 | 224 | 4.8 | 9.7 | 0.00 | 0.00 | 0.00 | 59 | 1016.8 |
| 20260507004547 | 20 | 224 | 4.8 | 12.9 | 0.00 | 0.00 | 0.00 | 56 | 1016.8 |
| 20260507003047 | 21 | 223 | 0.0 | 6.4 | 0.00 | 0.00 | 0.00 | 56 | 1016.8 |
| 20260507001554 | 21 | 223 | 4.8 | 11.3 | 0.00 | 0.00 | 0.00 | 56 | 1016.5 |
| 20260507000046 | 21 | 223 | 3.2 | 9.7 | 0.00 | 0.00 | 0.00 | 55 | 1016.4 |
| 20260506234545 | 21 | 223 | 4.8 | 9.7 | 0.00 | 0.00 | 0.00 | 56 | 1016.3 |
| 20260506233057 | 21 | 223 | 4.8 | 9.7 | 0.00 | 0.00 | 0.00 | 55 | 1016.4 |
| 20260506231543 | 22 | 211 | 6.4 | 16.1 | 0.00 | 0.00 | 0.00 | 55 | 1016.5 |
| 20260506230045 | 22 | 227 | 1.6 | 9.7 | 0.00 | 0.00 | 0.00 | 54 | 1016.5 |
| 20260506224541 | 22 | 227 | 1.6 | 11.3 | 0.00 | 0.00 | 0.00 | 55 | 1016.7 |
| 20260506223043 | 22 | 227 | 6.4 | 16.1 | 0.00 | 0.00 | 0.00 | 54 | 1016.8 |
| 20260506221544 | 23 | 200 | 0.0 | 16.1 | 0.00 | 0.00 | 0.00 | 54 | 1016.8 |
| 20260506220045 | 22 | 224 | 0.0 | 12.9 | 0.00 | 0.00 | 0.00 | 53 | 1017.0 |
| 20260506214535 | 23 | 224 | 0.0 | 11.3 | 0.00 | 0.00 | 0.00 | 51 | 1017.1 |
| 20260506213035 | 23 | 223 | 9.7 | 14.5 | 0.00 | 0.00 | 0.00 | 51 | 1017.3 |
| 20260506211535 | 23 | 223 | 6.4 | 14.5 | 0.00 | 0.00 | 0.00 | 48 | 1017.3 |
| 20260506210030 | 24 | 182 | 1.6 | 6.4 | 0.00 | 0.00 | 0.00 | 48 | 1017.3 |
| 20260506204526 | 23 | 284 | 1.6 | 16.1 | 0.00 | 0.00 | 0.00 | 50 | 1017.5 |
| 20260506203027 | 23 | 245 | 1.6 | 8.0 | 0.00 | 0.00 | 0.00 | 43 | 1017.6 |
| 20260506201524 | 22 | 327 | 4.8 | 12.9 | 0.00 | 0.00 | 0.00 | 46 | 1017.9 |
| 20260506200017 | 22 | 269 | 3.2 | 11.3 | 0.00 | 0.00 | 0.00 | 46 | 1018.1 |
| 20260506194514 | 22 | 323 | 4.8 | 17.7 | 0.00 | 0.00 | 0.00 | 46 | 1018.2 |
| 20260506193011 | 21 | 355 | 4.8 | 9.7 | 0.00 | 0.00 | 0.00 | 47 | 1018.4 |
| 20260506191507 | 21 | 213 | 0.0 | 9.7 | 0.00 | 0.00 | 0.00 | 50 | 1018.7 |
| 20260506190006 | 20 | 325 | 3.2 | 9.7 | 0.00 | 0.00 | 0.00 | 53 | 1018.8 |
| 20260506184506 | 20 | 321 | 1.6 | 9.7 | 0.00 | 0.00 | 0.00 | 51 | 1019.0 |
| 20260506183108 | 20 | 323 | 4.8 | 14.5 | 0.00 | 0.00 | 0.00 | 53 | 1019.1 |
| 20260506181559 | 20 | 360 | 4.8 | 12.9 | 0.00 | 0.00 | 0.00 | 53 | 1019.3 |
| 20260506180056 | 18 | 337 | 1.6 | 12.9 | 0.00 | 0.00 | 0.00 | 55 | 1019.4 |
| 20260506174600 | 18 | 320 | 0.0 | 16.1 | 0.00 | 0.03 | 0.00 | 57 | 1019.3 |
| 20260506173106 | 17 | 210 | 0.0 | 6.4 | 0.00 | 0.03 | 0.00 | 60 | 1019.4 |
| 20260506171549 | 17 | 210 | 0.0 | 6.4 | 0.00 | 0.03 | 0.00 | 62 | 1019.6 |
| 20260506170046 | 16 | 209 | 3.2 | 9.7 | 0.00 | 0.03 | 0.00 | 63 | 1019.6 |
| 20260506164540 | 16 | 199 | 0.0 | 11.3 | 0.00 | 0.03 | 0.00 | 67 | 1019.6 |
| 20260506163042 | 15 | 55 | 3.2 | 9.7 | 0.00 | 0.03 | 0.00 | 68 | 1019.5 |
| 20260506161538 | 15 | 221 | 0.0 | 6.4 | 0.00 | 0.03 | 0.00 | 73 | 1019.4 |
| 20260506160030 | 15 | 221 | 0.0 | 6.4 | 0.00 | 0.03 | 0.00 | 74 | 1019.4 |
| 20260506154526 | 14 | 221 | 0.0 | 0.0 | 0.00 | 0.03 | 0.00 | 77 | 1019.4 |
| 20260506153032 | 13 | 221 | 1.6 | 6.4 | 0.00 | 0.03 | 0.00 | 79 | 1019.4 |
| 20260506151518 | 12 | 221 | 0.0 | 4.8 | 0.00 | 0.03 | 0.00 | 85 | 1019.5 |
| 20260506150016 | 12 | 221 | 0.0 | 0.0 | 0.00 | 0.03 | 0.00 | 91 | 1019.6 |
| 20260506144524 | 11 | 221 | 0.0 | 0.0 | 0.00 | 0.03 | 0.00 | 92 | 1019.5 |
| 20260506143009 | 10 | 221 | 0.0 | 0.0 | 0.00 | 0.03 | 0.00 | 95 | 1019.3 |
| 20260506141506 | 9 | 221 | 0.0 | 0.0 | 0.00 | 0.03 | 0.00 | 95 | 1019.4 |
| 20260506140005 | 7 | 221 | 0.0 | 0.0 | 0.00 | 0.03 | 0.00 | 95 | 1019.3 |
| 20260506134503 | 6 | 221 | 0.0 | 0.0 | 0.00 | 0.03 | 0.00 | 94 | 1019.3 |
| 20260506133001 | 6 | 221 | 0.0 | 0.0 | 0.00 | 0.03 | 0.00 | 94 | 1019.0 |
| 20260506131601 | 6 | 221 | 0.0 | 0.0 | 0.00 | 0.03 | 0.00 | 93 | 1018.9 |